Weather History for Albany, NY

Change the Weather History Date:

Friday, November 2, 2012

  Actual Average Record
Temperature  
Mean Temperature 44 °F 44 °F  
Max Temperature 48 °F 53 °F 82 °F (1950)
Min Temperature 40 °F 35 °F 19 °F (1976)
Degree Days  
Heating Degree Days 21 21  
Month to date heating degree days 40 42  
Since 1 July heating degree days 526 687  
Cooling Degree Days 0 0  
Month to date cooling degree days 0 0  
Year to date cooling degree days 814 598  
Moisture  
Dew Point 35 °F    
Average Humidity 72    
Maximum Humidity 83    
Minimum Humidity 60    
Precipitation  
Precipitation T in 0.12 in 1.66 in (1897)
Month to date precipitation 0.04 0.23  
Year to date precipitation 32.11 33.36  
Snow  
Snow 0.00 in 0.10 in 0.10 in (1911)
Month to date snowfall 0.0 0.1  
Since 1 July snowfall 0.0 0.1  
Since 1 September snowfall 0.0 0.1  
Snow Depth 0.00 in    
Sea Level Pressure  
Sea Level Pressure 29.63 in    
Wind  
Wind Speed 11 mph (West)    
Max Wind Speed 21 mph    
Max Gust Speed 30 mph    
Visibility 10 miles    
Events Rain    
T = Trace of Precipitation, MM = Missing Value Source: NWS Daily Summary

Daily Weather History Graph

Daily Weather History Graph

Search for Another Location

Airport:

Trip Planner

Search our weather history database for the weather conditions in past years. The results will help you decide how hot, cold, wet, or windy it might be!

Date:

Astronomy

Nov. 02, 2012 Rise Set
Actual Time 7:31 AM EDT 5:45 PM EDT
Civil Twilight 7:01 AM EDT 6:15 PM EDT
Nautical Twilight 6:28 AM EDT 6:48 PM EDT
Astronomical Twilight 5:55 AM EDT 7:21 PM EDT
Moon 8:27 PM EDT (11/2) 10:52 AM EDT (11/2)
Length of Visible Light 11h 13m
Length of Day
10h 14m
Waning Gibbous, 87% of the Moon is Illuminated
Nov 2
Waning Gibbous
Nov 6
Last Quarter
Nov 13
New
Nov 20
First Quarter
Nov 28
Full

Hourly Weather History & Observations

Time (EDT) Temp. Windchill Dew Point Humidity Pressure Visibility Wind Dir Wind Speed Gust Speed Precip Events Conditions
12:51 AM 45.0 °F 43.5 °F 39.0 °F 80% 29.58 in 10.0 mi SSW 3.5 mph - N/A   Overcast
1:51 AM 45.0 °F 41.8 °F 37.9 °F 76% 29.59 in 10.0 mi WSW 5.8 mph - N/A   Overcast
2:10 AM 44.6 °F 43.1 °F 37.4 °F 76% 29.58 in 10.0 mi WNW 3.5 mph - N/A   Overcast
2:51 AM 44.1 °F 39.0 °F 37.0 °F 76% 29.59 in 10.0 mi WSW 9.2 mph - N/A   Mostly Cloudy
3:17 AM 44.6 °F 42.2 °F 37.4 °F 76% 29.59 in 10.0 mi SW 4.6 mph - N/A   Overcast
3:51 AM 45.0 °F 40.6 °F 36.0 °F 71% 29.60 in 10.0 mi West 8.1 mph - N/A   Overcast
4:51 AM 44.1 °F 38.6 °F 35.1 °F 71% 29.59 in 10.0 mi West 10.4 mph - N/A   Overcast
5:51 AM 44.1 °F 42.5 °F 36.0 °F 73% 29.60 in 10.0 mi West 3.5 mph - N/A   Overcast
6:12 AM 44.6 °F 41.4 °F 35.6 °F 71% 29.58 in 10.0 mi WNW 5.8 mph - N/A   Overcast
6:38 AM 44.6 °F 43.1 °F 35.6 °F 71% 29.58 in 10.0 mi West 3.5 mph - N/A   Overcast
6:51 AM 44.1 °F 42.5 °F 35.1 °F 71% 29.59 in 10.0 mi West 3.5 mph - N/A   Overcast
7:51 AM 43.0 °F 39.5 °F 36.0 °F 76% 29.61 in 10.0 mi West 5.8 mph - N/A   Overcast
8:51 AM 44.1 °F 39.5 °F 36.0 °F 73% 29.62 in 10.0 mi West 8.1 mph - N/A   Overcast
9:38 AM 44.6 °F 40.2 °F 35.6 °F 71% 29.62 in 10.0 mi West 8.1 mph - N/A   Overcast
9:51 AM 45.0 °F 40.6 °F 35.1 °F 68% 29.62 in 10.0 mi West 8.1 mph - N/A   Overcast
10:25 AM 44.6 °F 38.1 °F 35.6 °F 71% 29.62 in 10.0 mi WNW 13.8 mph 18.4 mph N/A   Mostly Cloudy
10:51 AM 46.0 °F 40.2 °F 35.1 °F 66% 29.63 in 10.0 mi West 12.7 mph 18.4 mph N/A   Overcast
11:51 AM 46.0 °F 41.4 °F 36.0 °F 68% 29.63 in 10.0 mi West 9.2 mph - 0.00 in   Overcast
12:51 PM 45.0 °F 38.2 °F 36.0 °F 71% 29.63 in 10.0 mi NW 15.0 mph - N/A   Overcast
1:51 PM 46.9 °F - 35.1 °F 63% 29.62 in 10.0 mi NW 15.0 mph 23.0 mph N/A   Mostly Cloudy
2:51 PM 46.9 °F - 34.0 °F 61% 29.62 in 10.0 mi WNW 12.7 mph 20.7 mph N/A   Mostly Cloudy
3:51 PM 46.0 °F 39.6 °F 33.1 °F 61% 29.63 in 10.0 mi WNW 15.0 mph 23.0 mph N/A   Mostly Cloudy
4:51 PM 44.1 °F 36.8 °F 33.1 °F 65% 29.65 in 10.0 mi WNW 16.1 mph - N/A   Mostly Cloudy
5:51 PM 43.0 °F 35.4 °F 32.0 °F 65% 29.66 in 10.0 mi WNW 16.1 mph 21.9 mph N/A   Overcast
6:51 PM 42.1 °F 34.5 °F 33.1 °F 70% 29.69 in 10.0 mi WNW 15.0 mph 21.9 mph N/A   Overcast
7:51 PM 42.1 °F 35.2 °F 33.1 °F 70% 29.71 in 10.0 mi WNW 12.7 mph - N/A   Overcast
8:51 PM 41.0 °F 33.9 °F 34.0 °F 76% 29.72 in 10.0 mi West 12.7 mph - N/A   Overcast
9:51 PM 41.0 °F 34.7 °F 34.0 °F 76% 29.72 in 10.0 mi WNW 10.4 mph - N/A   Overcast
10:51 PM 41.0 °F 34.3 °F 34.0 °F 76% 29.72 in 10.0 mi West 11.5 mph - 0.00 in   Light Drizzle
11:51 PM 41.0 °F 35.2 °F 34.0 °F 76% 29.73 in 10.0 mi WNW 9.2 mph - 0.00 in   Overcast